Wind_Speed
25 24 24 23 22 21 20 18 17 17 17 17 17 18 18 18 19 19 20 21 22 23 25 26 27 28 29 29 30 30 30 30 29 28 28 27 26 26 26 27 28 29 29 30 30 30 30 30 29 28 27 26 26 25 25 24 24 23 23 23 21 20 19 20 21 22 23 23 23 22 21 19 17 15 15 15 15 14 13 13 13 15 18 19 19 19
25 24 23 23 22 21 20 19 18 18 19 19 19 20 20 20 21 21 22 23 23 24 25 26 26 27 27 27 27 27 27 27 27 27 26 26 26 26 27 28 29 29 30 31 31 31 31 31 30 29 28 27 26 26 25 24 23 23 23 22 21 19 18 17 18 19 20 21 21 20 18 16 14 13 13 13 13 13 13 13 14 16 18 19 18 16
26 25 24 23 23 22 22 21 20 20 21 21 21 21 21 22 23 23 24 25 25 26 26 26 27 26 26 26 26 26 26 26 26 26 26 26 26 27 28 29 29 30 31 31 31 31 31 31 30 29 28 27 27 26 25 24 22 21 21 21 20 19 17 17 17 17 19 19 19 18 16 13 12 11 12 12 13 13 14 14 15 17 19 19 18 16
27 26 25 24 24 24 24 24 23 23 23 22 22 22 22 23 23 24 24 25 26 26 27 27 27 26 26 26 26 26 26 26 26 26 26 26 27 27 28 29 30 30 31 32 32 32 32 31 31 29 28 27 26 25 23 22 20 19 19 19 18 18 17 17 16 17 18 18 17 16 13 11 9 10 12 13 14 15 15 16 17 18 19 20 19 19
28 27 26 26 25 25 25 26 26 26 25 24 23 22 22 23 23 23 24 24 25 25 26 26 26 26 26 25 25 26 26 26 26 27 27 27 27 28 29 30 30 31 31 32 32 32 32 31 30 29 28 26 25 23 21 20 19 18 17 17 17 17 17 17 17 17 17 17 16 14 12 9 9 11 15 17 18 18 19 19 19 19 20 20 21 21
30 28 27 27 26 26 26 27 27 27 27 26 25 24 23 23 23 23 23 24 24 25 25 25 25 25 25 25 25 25 26 26 26 27 27 28 28 29 29 30 30 30 31 31 32 32 32 31 30 28 26 25 23 21 20 19 18 17 17 17 17 18 18 17 17 17 17 17 16 14 11 9 9 11 16 19 21 22 23 23 22 21 21 22 22 22
32 31 29 28 27 27 27 27 28 28 28 27 27 26 25 25 24 24 24 24 24 25 25 25 26 25 25 25 25 26 26 26 27 27 28 28 29 29 29 29 29 30 30 30 31 31 31 30 28 26 25 23 22 20 19 19 18 18 18 19 19 19 19 18 18 18 18 17 15 14 12 10 9 11 14 18 21 23 25 25 24 23 23 23 24 24
34 33 32 31 29 28 27 27 27 27 27 28 28 28 28 27 27 26 26 26 26 26 26 26 26 26 26 26 26 27 27 27 28 28 28 29 29 29 29 29 29 29 29 29 29 29 29 27 26 24 22 21 21 20 19 19 19 19 20 21 21 21 20 19 18 19 18 17 15 14 12 11 11 11 13 17 21 23 24 25 25 25 25 25 25 26
35 35 34 33 31 29 28 27 27 26 26 27 28 29 29 29 29 29 28 28 28 28 27 28 28 28 27 27 28 28 28 29 29 29 29 29 30 29 29 29 28 28 27 27 27 27 26 24 22 21 21 20 20 20 20 20 20 20 21 22 22 21 20 19 19 19 19 18 16 14 13 12 12 12 13 16 20 23 24 24 24 24 24 24 24 24
34 34 33 34 33 32 30 29 28 26 26 27 28 29 30 30 31 31 30 30 30 29 29 29 29 29 29 29 29 29 30 30 30 30 30 30 30 30 29 28 27 27 26 25 24 23 22 20 20 19 20 20 20 21 21 21 21 21 22 22 21 20 19 19 19 20 19 18 16 15 14 13 13 12 13 15 18 21 24 25 25 24 24 23 22 21
34 32 31 31 33 34 33 32 30 28 27 27 28 29 30 30 31 31 31 31 31 31 31 31 31 31 30 30 30 30 30 31 31 32 32 31 31 30 29 28 27 26 24 23 22 21 19 18 18 19 20 20 21 21 20 20 20 21 21 21 20 19 18 19 20 20 20 18 16 15 14 13 13 13 13 14 16 19 22 25 26 26 24 23 22 21
34 33 32 31 32 33 34 35 33 31 29 29 29 30 30 30 30 30 31 32 32 31 32 32 32 32 32 31 31 31 31 31 31 32 32 32 32 31 30 29 27 25 24 22 21 20 19 18 19 19 20 20 20 20 19 19 19 19 20 19 18 18 18 19 20 20 20 18 16 15 14 13 13 12 13 14 15 17 20 23 25 26 26 25 24 23
35 35 34 34 33 34 35 35 35 33 32 31 31 31 30 30 30 30 31 31 31 31 31 32 32 33 33 32 31 31 30 31 31 32 32 32 32 31 30 29 27 25 23 22 21 21 20 20 20 20 21 21 21 20 20 19 19 19 19 19 19 19 19 20 20 20 19 18 17 16 15 14 13 13 13 14 15 16 18 20 22 24 25 25 25 25
36 37 37 36 36 36 36 36 36 35 34 32 31 30 30 30 30 31 31 31 31 31 31 31 32 32 32 32 31 31 30 30 30 31 32 32 32 31 30 29 27 26 24 22 22 22 22 22 22 22 22 22 22 22 22 22 21 21 20 20 20 20 20 20 21 20 19 18 17 16 16 15 14 13 13 14 15 16 17 18 20 21 23 24 25 25
36 36 36 36 37 37 38 37 37 37 36 33 31 30 30 31 31 31 31 31 30 30 30 30 31 31 32 31 31 30 29 29 29 30 31 32 31 31 30 29 28 26 25 24 23 24 24 24 24 24 24 24 24 24 24 24 23 23 22 21 21 20 20 21 20 20 19 18 17 16 16 15 14 14 13 14 15 15 16 17 18 20 21 23 24 25
36 35 35 35 37 38 38 38 38 38 36 34 32 31 31 31 31 31 30 30 29 29 28 29 30 31 31 31 30 29 28 28 28 29 30 30 30 30 29 29 28 27 26 25 25 25 25 26 26 26 26 26 25 25 25 24 24 23 22 21 21 21 21 20 20 19 18 17 16 16 15 14 14 13 13 14 15 16 16 17 18 19 21 22 24 25
36 35 34 35 36 37 38 38 38 38 36 35 33 31 30 30 30 29 29 28 28 27 28 28 28 30 31 30 30 29 28 26 26 27 28 29 29 29 29 29 29 28 28 27 27 27 27 27 27 27 27 27 26 26 25 24 23 22 22 21 21 21 20 20 19 19 18 17 16 15 15 14 14 13 14 14 15 16 17 18 19 20 21 22 24 25
35 35 35 35 36 37 37 37 38 37 36 35 33 32 30 30 29 28 28 27 27 26 27 27 28 29 30 29 28 27 27 25 24 25 26 27 28 28 28 28 29 29 29 29 28 28 28 28 28 28 27 27 26 25 25 24 23 22 22 21 21 20 20 19 19 18 17 17 16 16 15 14 14 14 14 15 16 17 18 19 20 21 22 23 24 24
33 34 35 35 36 36 37 37 37 36 36 35 34 33 33 32 31 29 28 27 27 26 26 27 27 28 29 28 27 26 25 24 22 23 24 25 26 26 27 27 28 29 29 29 29 29 29 29 29 28 27 26 25 24 24 23 23 23 22 22 21 21 20 19 19 18 18 17 17 16 15 15 15 15 15 15 16 17 18 20 21 22 23 24 24 24
30 32 33 34 35 36 37 37 37 37 36 36 36 36 36 34 33 31 30 29 28 28 27 27 27 28 27 25 24 23 23 22 21 21 22 24 24 25 25 26 27 28 29 29 29 28 28 29 29 29 28 26 25 24 23 23 23 23 23 23 22 21 20 20 19 19 19 18 17 17 16 15 15 15 15 16 16 17 19 20 22 23 24 25 25 25
31 31 32 32 33 35 37 39 39 39 39 39 39 39 37 35 33 32 31 30 29 28 28 27 27 26 24 21 19 20 20 19 18 19 20 22 23 24 24 24 25 26 28 28 28 27 27 28 28 28 27 26 25 24 24 24 24 24 24 24 23 22 21 21 20 20 19 19 18 17 16 16 16 16 16 17 17 18 20 21 22 24 25 26 26 27
36 34 32 31 32 34 37 39 40 40 41 40 38 36 34 32 31 31 31 30 29 28 27 27 26 24 22 20 19 19 19 18 17 17 18 20 22 23 23 23 24 25 26 27 27 26 26 26 26 26 26 26 25 25 25 25 25 25 25 24 24 23 22 21 21 21 20 19 18 17 17 17 17 17 17 18 19 20 21 22 23 24 25 26 26 26
41 38 34 31 29 30 32 34 35 36 36 34 32 30 28 27 28 28 29 28 28 27 26 25 25 23 22 21 21 21 21 19 17 17 17 19 21 22 22 22 22 24 25 26 26 25 25 25 25 25 25 25 25 25 25 25 25 25 25 24 23 23 22 22 21 21 20 19 19 18 17 17 17 17 18 19 20 20 21 22 23 24 24 25 25 25
41 41 37 32 27 25 25 26 26 27 27 26 25 24 24 24 25 26 26 26 26 25 25 24 24 24 24 23 22 22 21 20 18 16 17 19 22 23 22 21 21 22 24 25 25 25 25 25 25 25 25 25 25 25 25 26 26 25 25 24 24 23 23 22 22 21 21 20 19 18 18 18 18 18 18 19 20 21 21 22 23 23 23 23 23 23
40 40 38 33 28 25 24 23 23 22 22 22 22 23 23 23 24 24 24 24 24 24 24 24 25 25 26 25 24 24 23 21 19 18 18 20 22 22 22 21 21 22 23 24 25 24 24 25 25 26 26 26 27 27 26 26 26 26 25 25 24 24 23 23 23 22 21 21 20 19 19 18 18 18 19 19 20 20 21 22 22 22 22 22 22 22
38 40 39 36 33 30 28 26 25 24 24 23 22 22 22 22 23 24 24 25 25 24 25 25 26 27 28 27 27 26 24 22 21 20 20 21 22 23 23 22 21 21 22 23 24 24 24 25 26 27 27 28 28 28 28 28 27 27 26 26 25 24 24 23 23 23 22 21 21 20 19 19 18 18 19 19 19 20 21 21 21 21 21 21 21 21
36 38 40 39 37 35 33 31 30 29 28 27 25 23 22 22 23 25 27 27 27 26 26 27 27 28 29 29 30 29 26 24 22 21 21 21 22 24 24 23 22 21 21 22 23 23 24 25 26 27 28 28 29 29 29 29 29 28 28 27 26 25 25 24 24 23 23 22 21 20 19 19 19 19 19 19 19 20 20 21 21 21 21 21 21 20
31 35 37 38 38 35 33 31 30 30 30 29 27 25 24 24 25 27 29 28 27 27 28 28 28 28 29 31 31 31 28 26 24 22 21 22 24 25 25 24 23 22 22 22 22 23 23 24 25 26 28 28 29 30 30 30 30 30 29 28 27 26 25 25 25 24 23 22 22 21 20 19 19 19 19 19 19 20 20 20 21 21 21 21 20 20
28 29 32 35 35 33 31 28 28 27 27 27 27 26 26 27 29 30 29 28 27 28 29 30 30 30 30 31 32 31 31 29 26 24 22 23 25 26 27 25 24 23 23 22 22 23 23 25 25 26 27 28 30 31 31 31 31 31 30 29 28 27 27 26 25 25 24 23 22 21 20 20 19 19 19 19 19 20 20 20 21 21 20 20 19 19
27 27 28 30 31 31 30 29 28 27 25 25 25 27 28 29 31 31 30 29 28 29 30 31 31 31 31 31 31 32 33 32 29 26 24 24 26 27 27 26 25 25 24 23 23 24 25 26 26 26 27 28 30 31 32 32 32 32 32 31 30 29 28 27 27 26 25 24 23 22 21 20 20 20 20 20 20 20 20 20 20 20 20 19 19 18
29 28 27 27 27 28 29 31 31 29 27 25 25 27 28 30 31 32 31 31 30 31 31 31 32 32 31 31 32 33 35 34 31 28 26 26 27 27 27 27 26 26 25 25 25 26 26 27 27 27 27 28 29 31 33 33 34 34 33 32 32 31 30 29 28 27 26 25 24 23 22 21 20 20 20 20 20 20 20 20 20 20 19 19 18 17
33 32 30 27 26 27 29 30 31 30 29 28 27 27 28 30 31 32 32 32 32 31 32 32 32 32 32 32 33 34 35 35 33 30 28 26 27 27 27 27 27 27 26 26 27 27 27 27 28 28 28 28 29 31 33 34 34 35 34 34 33 32 31 31 30 29 28 26 25 24 22 21 21 21 20 20 20 20 20 20 20 19 18 18 17 17
35 35 33 31 29 28 28 29 29 29 30 29 29 29 29 30 31 32 33 33 33 32 32 32 32 32 32 33 34 35 35 34 33 31 29 27 27 26 26 26 26 26 26 26 27 28 28 28 29 28 28 28 29 30 32 34 35 35 35 35 34 33 32 32 31 30 29 27 26 25 23 22 22 21 21 21 21 20 20 19 19 18 18 17 16 16
36 36 36 34 33 31 30 28 28 28 28 29 29 29 29 30 31 32 33 33 33 32 32 32 32 33 33 33 34 34 35 34 33 32 30 28 27 27 26 26 26 25 26 26 27 28 29 30 30 29 29 29 29 30 32 34 35 36 36 35 35 34 34 33 32 31 29 28 27 26 24 23 22 22 21 21 21 20 20 19 19 18 17 16 16 15
36 36 37 36 35 34 33 31 29 28 27 27 28 29 29 30 30 31 32 33 33 32 32 32 32 33 33 34 34 35 35 34 33 32 31 29 28 27 26 26 25 25 25 26 26 27 28 29 29 29 29 29 29 30 32 34 35 36 36 36 36 35 35 34 33 32 30 29 27 26 25 24 23 22 22 21 21 20 19 19 19 18 17 16 15 15
33 33 34 34 35 35 35 34 32 30 28 27 27 28 29 30 30 31 32 33 33 33 32 32 31 32 32 33 34 34 34 33 32 31 30 29 28 27 26 26 25 24 24 25 26 26 27 28 28 29 29 29 29 30 32 34 35 36 37 37 36 36 35 35 34 32 31 30 28 27 25 24 23 22 22 21 20 20 19 19 18 18 16 15 15 15
31 30 30 31 32 33 35 35 34 33 31 29 28 28 28 29 30 31 32 33 33 33 33 32 31 31 30 31 31 32 32 31 31 30 29 28 27 26 26 25 24 24 24 24 25 25 26 27 28 28 29 30 31 31 32 34 35 37 38 38 38 37 36 36 35 33 32 31 29 27 26 25 23 22 22 21 20 20 19 19 19 17 16 15 15 15
31 31 31 31 31 31 32 34 34 34 33 31 30 28 27 28 29 30 31 32 33 33 33 33 32 31 29 29 29 29 29 29 29 29 28 27 26 26 25 24 24 23 23 24 24 24 25 26 28 29 29 30 31 31 31 33 35 37 38 38 38 38 37 36 35 34 33 31 30 28 26 25 24 23 22 21 21 20 20 19 19 18 16 15 15 16
31 32 32 32 31 31 31 32 34 35 35 34 32 30 29 29 29 30 30 31 31 32 33 33 32 31 29 28 27 27 27 28 28 28 27 26 26 25 25 24 23 23 23 23 23 23 24 25 26 28 29 29 30 30 30 31 33 36 37 38 38 38 38 37 36 35 34 32 31 29 27 26 25 24 23 22 22 21 21 20 19 18 17 16 16 17
31 32 33 33 33 31 31 31 33 35 36 35 34 32 31 31 31 30 30 30 30 31 31 32 32 31 30 29 28 27 27 28 27 27 27 26 26 25 25 24 23 23 22 22 22 22 23 23 24 24 25 27 28 29 29 30 31 33 36 38 40 40 40 39 37 36 35 33 32 30 29 27 26 25 24 23 23 22 21 20 19 18 17 17 17 17
32 33 34 34 33 31 30 30 30 32 34 35 35 35 34 33 32 32 32 31 30 30 31 32 32 33 32 31 30 29 28 28 28 27 27 26 26 25 25 24 24 23 22 22 22 22 22 22 22 23 23 24 25 27 28 28 29 31 34 37 39 40 39 39 38 37 36 34 33 31 30 29 27 26 25 24 23 22 21 19 18 17 17 17 17 18
34 34 35 34 32 29 27 26 26 27 29 32 34 34 35 34 33 32 32 32 32 31 32 32 33 34 34 33 32 30 30 29 29 28 28 27 26 26 25 25 24 23 22 22 22 22 21 21 21 22 22 23 24 25 26 26 27 29 31 34 36 37 37 38 38 38 37 36 34 32 31 30 29 27 26 25 24 22 21 19 18 17 17 17 17 17
37 36 35 32 29 26 23 22 22 24 26 29 31 33 34 34 33 31 31 32 33 33 33 34 34 35 35 35 33 32 31 31 30 29 29 28 27 26 25 25 24 23 23 22 22 22 21 21 21 21 21 22 23 24 24 25 26 27 29 31 34 37 39 40 39 38 37 36 35 33 32 31 29 28 26 25 24 22 21 19 18 18 17 17 16 16
36 34 32 28 26 23 22 23 23 25 26 28 30 32 33 33 32 31 30 32 33 35 35 35 35 35 35 35 34 33 32 32 31 30 29 28 27 26 25 25 24 24 23 23 23 22 22 21 21 22 22 22 22 23 23 24 24 25 27 28 31 35 38 38 38 37 37 36 35 34 32 31 29 28 27 26 24 23 22 20 19 19 18 18 17 17
30 28 27 25 24 24 24 25 26 27 28 29 30 30 31 31 30 29 29 31 34 36 37 36 35 35 35 35 35 34 33 33 32 32 30 29 27 26 25 25 24 24 23 23 23 23 23 22 22 22 22 22 22 23 23 24 24 24 25 26 28 30 31 32 34 35 35 35 34 33 32 31 30 29 28 27 26 24 23 21 20 20 20 19 19 18
26 26 25 25 25 26 27 28 27 27 27 28 28 29 29 29 28 27 28 30 34 37 38 37 36 35 35 35 34 34 34 33 33 32 31 30 28 27 26 25 25 24 23 23 23 23 23 23 22 22 22 22 23 23 24 24 24 23 23 25 26 27 29 30 32 33 34 34 33 32 32 31 30 30 29 28 26 25 23 22 21 21 21 21 20 20
25 25 26 26 27 28 29 27 26 24 24 26 26 27 28 27 26 26 26 29 33 36 38 37 35 34 33 33 33 33 33 33 32 32 31 30 29 28 27 26 25 25 24 24 23 23 23 22 22 22 22 22 23 24 24 25 25 24 23 24 24 26 27 29 30 31 31 32 32 32 31 31 31 31 30 29 27 26 24 23 22 22 21 21 21 21
29 29 29 29 29 29 28 26 24 23 24 26 27 27 28 27 26 25 25 28 32 36 37 35 34 32 31 31 31 31 31 31 31 30 30 30 29 29 28 28 27 26 25 25 24 23 23 22 22 22 22 22 23 24 25 25 25 25 24 23 23 24 25 26 27 28 29 30 31 31 31 31 31 32 31 29 28 26 25 24 23 22 22 22 22 22
28 28 29 29 29 29 28 26 24 23 24 26 27 27 28 27 26 25 25 28 32 36 36 34 31 30 29 30 30 30 29 29 29 29 29 29 29 29 29 29 28 28 27 26 25 24 24 23 23 23 22 22 23 23 24 25 25 25 24 23 23 23 24 25 26 27 28 29 29 29 30 30 30 30 30 29 28 27 26 24 24 23 23 23 23 23
25 26 27 27 27 26 24 23 22 22 24 24 25 26 27 27 27 26 27 29 33 36 36 33 30 28 28 28 29 29 28 28 28 28 28 29 29 29 29 29 29 29 29 28 27 26 25 24 24 24 24 23 23 23 24 24 24 24 24 23 23 23 24 24 25 26 26 27 28 28 28 28 29 29 28 28 27 26 26 25 24 24 24 24 24 23
23 23 23 23 22 21 20 20 20 22 23 23 24 25 27 28 28 28 28 30 33 36 36 33 30 27 27 27 27 28 28 28 28 28 28 28 28 29 30 30 31 31 31 30 29 28 27 26 25 24 24 25 25 25 24 24 24 24 24 24 24 24 24 24 24 25 26 26 26 26 27 28 28 28 28 28 27 26 26 26 25 25 25 24 24 24
Wind_Direction
281 279 277 274 272 269 265 262 261 262 263 262 261 259 258 258 257 255 254 252 251 251 251 252 253 254 256 257 258 258 259 259 259 258 258 258 257 257 257 257 258 258 259 260 260 261 262 263 265 265 265 264 262 260 258 256 254 252 251 250 252 255 258 258 257 255 255 255 255 254 252 250 251 253 254 255 255 253 250 245 241 236 228 222 218 216
282 281 278 274 272 270 268 267 267 269 271 269 266 262 258 255 254 253 253 252 252 252 252 253 254 255 256 257 257 258 258 257 257 256 256 257 257 258 259 259 260 260 260 261 261 261 262 263 264 265 265 264 262 259 257 255 253 251 250 249 250 253 256 259 260 261 262 262 261 260 257 255 255 254 252 251 250 248 243 237 233 231 227 223 219 218
282 281 277 273 271 271 272 272 272 272 273 272 269 264 260 256 253 251 251 251 251 252 252 253 254 254 255 255 256 256 256 256 256 256 257 258 259 260 261 262 262 263 263 262 262 262 262 263 264 265 265 263 260 257 255 253 251 249 247 248 249 252 255 258 261 262 263 263 263 262 261 261 261 259 254 252 250 245 239 233 230 230 231 231 231 231
278 278 275 272 270 270 272 274 274 273 272 270 268 265 261 257 254 252 252 251 252 252 253 253 254 254 254 254 254 255 255 256 257 258 259 260 261 262 263 264 264 264 264 264 263 263 263 263 264 264 264 261 258 254 251 249 246 244 244 246 250 254 257 258 259 259 259 260 261 260 259 258 254 247 242 241 240 237 234 231 229 229 231 235 238 241
273 273 271 270 269 269 271 273 274 273 271 269 266 263 260 258 256 254 253 253 253 254 254 254 254 254 254 254 254 255 255 256 256 258 259 261 262 263 264 264 265 265 264 264 264 263 263 263 264 264 262 258 253 248 245 242 239 238 240 244 249 254 257 257 256 256 255 256 257 256 253 247 236 227 223 218 217 220 224 228 230 230 231 234 237 241
271 271 270 268 267 267 269 271 272 272 270 268 265 261 259 257 255 255 254 254 255 255 256 256 256 256 256 256 256 256 255 256 256 257 259 261 262 263 264 265 265 264 264 263 263 263 262 263 263 261 258 252 246 241 238 235 233 234 237 242 249 254 255 255 253 252 252 253 254 253 250 244 233 224 220 214 209 210 217 225 230 232 232 233 235 239
272 271 270 268 266 265 265 268 269 270 269 267 264 261 258 256 255 254 254 255 255 256 257 258 258 259 259 259 259 258 258 258 258 258 259 261 262 263 264 265 265 264 263 262 262 262 261 261 260 257 252 245 239 235 232 230 230 233 238 244 250 253 253 251 249 249 250 251 251 251 249 246 240 233 227 221 217 215 219 226 232 235 235 235 236 238
271 272 271 270 267 265 264 264 266 268 268 267 264 261 258 256 254 253 254 254 255 256 258 259 260 261 261 262 262 262 262 261 261 261 261 261 262 263 264 264 264 264 263 262 261 260 260 259 256 251 244 239 235 232 230 229 231 236 241 246 250 251 250 248 246 247 248 248 248 248 249 248 246 241 235 230 227 226 227 230 234 236 237 237 237 239
270 269 269 269 268 267 266 264 264 266 267 267 265 263 260 257 255 253 253 253 254 256 258 260 261 262 263 264 265 265 265 264 263 263 262 262 262 263 263 264 264 264 263 261 259 258 257 254 249 242 237 235 234 233 232 231 234 238 243 247 249 249 247 245 244 245 246 246 246 247 248 249 248 245 240 235 233 232 233 234 235 236 236 236 237 238
270 268 267 267 268 268 268 268 267 265 266 266 265 263 261 259 257 256 256 255 255 256 258 260 262 263 264 264 265 265 265 265 265 264 264 263 263 262 263 263 263 262 261 259 256 254 252 248 241 235 233 233 234 234 234 234 235 238 242 245 246 246 244 243 243 244 244 245 245 245 246 247 247 246 243 239 237 236 236 237 237 237 236 235 234 234
272 270 268 268 268 268 268 269 269 267 266 265 264 263 261 260 260 260 260 259 259 260 261 262 263 264 264 264 264 264 265 265 265 265 264 263 262 262 261 261 261 260 258 254 250 247 245 241 236 232 230 230 232 234 235 235 235 237 239 242 243 242 242 242 242 243 243 243 244 245 246 247 246 245 244 242 240 240 239 239 239 238 238 237 236 236
271 271 271 271 270 269 268 268 268 267 266 265 263 263 262 261 261 262 263 262 263 263 265 265 265 265 265 265 265 264 264 263 263 263 263 262 261 261 260 259 259 257 254 249 244 240 238 236 233 230 229 229 232 234 236 236 235 236 238 240 241 241 241 242 241 241 241 243 245 248 251 251 249 246 244 244 243 242 241 240 240 240 241 241 241 243
268 269 270 271 270 269 267 266 266 266 265 264 263 263 263 263 263 263 263 263 263 264 265 266 266 266 266 265 265 265 264 263 262 261 261 260 259 259 258 257 256 253 250 245 240 235 233 232 231 230 229 231 234 237 239 239 239 240 242 243 243 242 241 241 240 240 241 244 248 253 256 256 254 250 246 244 243 242 241 241 241 242 243 244 246 249
266 267 269 270 269 267 265 263 263 263 263 263 263 263 264 265 265 265 264 263 263 264 265 267 267 267 266 266 266 265 265 263 262 260 259 258 258 257 256 254 252 250 246 241 238 234 231 230 229 229 229 232 236 239 240 242 244 246 247 247 245 243 241 239 239 240 243 247 252 255 258 258 256 252 248 246 244 241 240 239 240 242 244 246 248 251
266 267 267 268 267 266 264 262 261 261 262 263 264 265 266 266 266 265 264 264 264 265 266 267 267 267 267 266 266 265 264 263 261 259 258 257 256 255 253 251 250 248 244 239 236 234 231 230 229 228 228 231 234 237 239 242 244 246 247 246 244 242 239 238 239 242 246 250 254 256 257 257 255 252 249 247 244 241 239 237 238 240 242 245 248 250
267 266 266 266 266 265 264 262 261 261 263 264 265 266 267 266 265 265 265 266 267 268 269 270 270 268 267 266 266 266 265 263 261 259 257 256 254 253 251 249 248 246 243 238 235 233 231 231 230 230 229 230 232 235 237 239 242 243 244 244 242 240 239 239 241 245 249 253 255 256 256 255 253 251 248 246 244 242 239 237 237 239 241 244 247 249
267 266 266 266 266 265 264 264 263 263 264 265 266 266 266 266 266 266 267 268 269 271 272 272 272 271 269 267 267 267 266 265 262 260 257 255 253 250 249 247 246 245 243 239 235 233 232 231 231 231 231 231 232 234 235 237 239 240 241 241 240 239 239 241 244 248 252 254 255 255 254 252 250 248 246 244 243 241 239 238 238 239 242 245 247 248
268 267 267 267 266 265 265 264 264 265 265 265 265 266 266 267 268 269 270 270 272 273 274 273 271 270 269 269 269 268 268 267 264 261 257 254 252 249 246 245 244 244 243 240 237 235 233 232 232 232 232 233 233 234 234 235 236 238 240 241 241 241 242 244 247 250 252 254 254 253 252 250 248 246 244 243 242 241 240 238 238 239 241 244 246 247
271 270 269 268 267 266 265 264 264 264 264 265 265 266 267 268 269 271 271 272 272 273 274 273 272 270 269 269 270 270 270 269 266 262 258 254 250 247 244 242 242 242 242 240 238 236 234 233 233 232 232 233 233 233 233 233 235 237 240 242 243 244 245 247 249 250 252 252 252 251 250 248 247 245 244 243 242 241 240 239 238 238 240 242 244 245
273 271 270 270 270 270 269 269 269 268 267 266 266 266 266 267 268 269 269 271 272 273 273 273 273 272 272 273 275 274 272 270 267 263 257 253 248 245 242 240 240 241 241 240 239 237 235 234 233 232 230 230 230 230 231 232 234 236 238 241 243 245 247 248 249 250 250 250 250 249 248 248 247 246 245 244 243 242 240 239 238 238 239 241 242 244
268 271 272 274 274 273 273 275 276 275 272 269 266 264 263 264 265 265 266 268 270 272 274 274 275 275 276 278 280 278 273 270 267 262 256 250 246 242 239 237 237 239 240 241 240 238 236 235 234 231 228 227 227 228 229 231 233 235 236 239 241 243 246 247 248 248 248 248 248 248 248 247 247 246 245 244 243 242 241 240 239 239 239 240 242 243
260 264 269 273 274 274 274 275 275 274 271 266 261 259 259 260 261 262 264 266 268 271 274 276 276 277 277 278 278 275 272 269 264 259 254 250 246 241 236 233 233 235 237 239 239 238 237 236 235 232 229 226 226 228 230 232 233 235 236 238 240 242 244 245 246 246 247 247 247 247 247 247 247 246 245 244 244 243 242 241 240 240 240 240 241 243
255 258 262 268 272 273 272 270 269 267 264 261 259 259 262 262 263 263 265 267 270 273 275 276 275 274 274 275 275 273 271 267 261 255 252 251 249 244 237 232 230 232 234 236 237 236 236 235 235 233 231 229 229 230 232 234 235 236 237 238 240 242 243 244 245 245 246 247 247 247 247 247 247 246 246 245 244 243 242 242 241 240 240 240 241 243
251 253 256 261 266 269 270 268 266 263 261 261 264 268 271 271 270 268 267 268 270 271 273 273 273 272 270 270 271 272 270 266 260 252 248 247 248 246 242 236 232 231 232 233 234 233 233 233 233 233 233 232 233 234 235 236 237 238 239 240 241 242 242 243 244 245 246 246 247 247 247 247 247 247 246 245 244 243 242 241 240 240 239 240 241 242
250 250 252 254 257 261 264 266 267 266 266 267 270 273 275 275 274 273 271 270 269 269 270 271 271 270 269 268 268 268 268 265 259 250 244 244 246 248 245 240 236 234 234 233 232 231 231 231 231 231 232 233 235 236 237 238 239 240 240 240 241 241 241 242 243 244 245 246 247 248 248 248 247 247 246 245 244 243 242 241 240 239 239 239 241 242
252 250 250 252 254 257 259 260 262 263 264 265 266 268 270 272 272 271 269 266 265 265 265 265 267 268 269 268 267 266 265 263 258 251 244 242 245 248 246 242 239 237 237 235 233 231 230 230 230 230 231 232 234 236 238 239 240 241 241 241 241 241 240 241 242 243 245 246 247 248 248 248 248 247 246 245 243 242 241 240 239 239 239 240 241 243
256 253 252 254 258 261 264 265 265 264 263 262 261 262 264 266 266 264 261 258 258 259 259 260 262 265 268 268 267 266 264 262 258 252 246 243 244 246 246 243 240 239 239 238 235 233 231 230 230 230 231 231 233 234 237 239 240 241 242 241 241 240 240 240 241 243 245 246 247 248 248 248 248 247 246 244 243 241 240 240 240 240 240 241 242 244
263 258 256 257 260 265 270 272 272 269 266 263 261 261 262 262 261 259 256 254 255 256 257 257 258 261 263 265 266 266 265 262 258 253 247 243 243 244 245 243 241 240 240 240 237 235 233 232 231 230 230 230 231 232 234 237 239 240 241 241 241 240 239 239 241 242 244 246 247 248 248 248 247 246 245 243 242 241 240 240 240 240 241 242 243 245
271 264 259 257 259 263 269 274 275 273 268 263 259 258 259 260 258 256 254 253 253 253 254 256 257 259 261 264 266 266 266 263 259 254 248 244 242 243 243 242 241 240 239 240 239 237 235 233 231 230 229 229 228 229 231 233 236 238 239 240 240 239 238 239 240 242 244 246 247 248 248 247 246 245 244 243 241 240 240 240 240 241 242 243 244 246
278 271 264 261 260 262 266 270 272 271 268 261 255 253 254 255 256 256 254 252 250 250 252 254 256 257 259 260 261 261 261 261 258 253 248 244 243 243 243 242 241 240 238 238 239 239 238 234 232 230 229 228 227 227 228 230 232 234 236 237 238 237 237 238 239 241 243 245 246 247 247 246 246 245 244 243 242 241 240 240 241 242 243 244 245 247
277 274 271 269 267 267 267 268 269 269 266 261 255 250 248 249 252 253 254 252 250 250 251 252 253 254 255 253 251 250 254 258 258 254 250 247 245 245 244 244 243 241 238 237 238 239 239 237 233 231 229 228 227 226 227 228 230 232 234 235 235 236 237 237 238 240 242 244 245 245 245 245 245 244 244 244 243 242 242 242 242 243 243 245 246 247
274 274 273 272 272 273 272 271 270 269 266 262 256 251 247 246 247 249 251 251 251 250 250 251 251 251 252 251 249 249 254 258 258 256 253 250 249 249 248 246 245 244 242 239 238 238 239 239 237 233 230 229 227 226 226 227 229 231 233 234 234 235 236 237 238 239 240 242 243 243 244 244 244 244 245 245 244 244 244 244 244 244 244 246 247 247
273 273 273 272 273 274 275 275 273 270 267 263 259 255 251 248 247 247 248 249 250 250 250 249 249 249 249 250 251 252 255 257 257 256 255 253 251 251 250 249 248 247 245 243 241 240 239 240 239 236 233 230 229 227 226 226 227 230 232 233 234 235 237 237 237 238 239 240 241 242 242 242 243 244 244 245 246 246 246 246 246 246 246 246 246 245
275 274 274 273 272 273 274 276 275 272 268 264 261 259 257 254 250 248 248 249 250 250 249 248 247 246 246 247 249 251 252 253 254 254 253 252 251 251 251 250 249 247 246 244 243 242 240 240 240 239 236 233 230 228 227 225 226 228 230 232 234 235 236 237 237 238 239 239 240 240 241 241 241 242 244 245 246 247 247 248 247 247 247 246 245 242
277 277 276 274 271 270 271 273 274 274 271 268 266 264 263 260 256 253 251 251 251 250 249 247 246 245 245 245 246 248 249 250 250 250 250 250 250 250 250 250 249 248 246 245 244 242 242 241 240 240 239 236 232 229 227 225 225 226 229 231 233 235 236 238 238 239 239 239 239 240 240 240 241 242 243 245 246 247 248 249 248 248 247 245 242 238
280 280 278 275 272 269 268 269 271 274 276 275 273 270 268 266 263 260 256 254 253 252 251 249 247 245 244 245 246 247 248 248 249 249 249 250 250 250 250 250 249 248 247 245 244 243 243 242 242 241 240 239 235 230 226 224 223 224 226 228 231 233 235 238 239 240 240 240 240 240 240 240 241 242 243 245 246 247 248 248 248 247 245 242 238 233
280 282 282 280 276 271 267 266 267 270 275 278 278 276 273 271 269 266 263 259 256 255 253 251 249 247 245 245 245 246 248 248 249 248 248 248 249 249 249 249 249 248 246 245 244 244 244 243 243 242 241 240 238 234 228 223 221 221 223 226 228 230 233 236 238 239 240 240 240 240 240 240 240 241 242 244 245 245 246 247 247 246 243 238 232 227
279 283 285 286 282 276 269 265 263 264 268 272 275 277 276 274 273 271 268 264 260 257 254 252 250 248 246 244 244 244 245 246 246 246 246 245 245 245 246 247 247 247 246 245 244 244 245 243 241 241 240 240 239 237 233 227 222 219 221 224 227 229 231 234 236 238 239 239 240 240 239 239 240 240 241 242 242 242 242 242 243 243 240 234 227 222
281 284 286 288 287 282 275 267 262 261 261 265 269 274 276 277 276 274 271 267 263 259 256 253 250 248 245 243 242 241 241 242 242 242 242 242 241 241 242 243 244 244 243 243 243 244 245 244 243 242 241 240 239 238 236 232 226 222 221 222 224 227 229 232 234 236 237 238 238 238 238 237 238 238 239 239 240 240 240 239 240 240 238 231 223 218
285 287 288 289 288 284 277 270 265 261 260 261 264 269 274 277 278 277 274 270 266 261 258 254 251 248 246 243 241 240 239 239 239 239 239 239 238 238 239 240 240 240 240 240 240 242 243 244 245 246 245 243 241 239 236 233 230 226 222 220 220 223 226 229 232 234 236 237 237 237 236 236 236 236 237 238 238 239 239 239 239 238 236 229 220 213
288 289 289 290 287 283 278 272 267 263 261 260 262 265 270 273 275 276 275 272 269 265 260 256 252 249 246 243 240 239 238 238 238 238 237 237 236 236 236 237 237 237 236 236 237 239 241 243 244 244 244 243 242 240 238 235 231 228 224 221 221 223 225 227 229 232 234 235 236 236 235 235 235 235 236 237 237 238 238 237 236 236 235 231 222 213
288 288 288 287 285 281 277 274 270 267 263 262 262 264 266 269 270 271 271 271 269 267 262 257 252 248 245 243 240 237 236 236 237 237 236 235 234 234 234 234 233 233 232 233 235 237 239 240 241 241 240 239 238 238 238 235 232 229 226 225 224 225 225 226 228 230 232 233 234 234 234 234 234 234 235 236 236 236 235 234 232 231 230 228 223 215
285 286 286 285 283 282 281 280 278 274 270 266 264 263 264 266 269 271 271 271 270 269 265 258 251 246 243 241 239 237 235 234 234 235 234 234 233 232 232 231 230 229 228 230 232 235 236 236 237 237 236 235 235 236 237 234 231 229 226 225 224 222 220 221 224 227 229 231 232 232 232 232 232 232 233 234 234 233 232 230 227 225 223 222 219 213
282 283 283 281 280 280 280 278 276 274 272 269 267 264 264 266 268 271 272 272 271 269 266 260 252 245 242 240 239 237 235 234 233 233 232 232 231 231 230 229 228 227 226 227 230 232 233 233 233 232 232 233 233 234 235 234 232 229 226 224 223 223 222 222 223 225 227 229 230 230 229 229 229 229 231 231 231 231 229 226 223 219 216 216 214 208
277 276 273 270 270 270 272 273 273 272 271 268 266 265 265 266 268 271 272 272 271 268 263 258 250 242 240 239 238 237 235 234 233 232 231 231 230 229 228 227 226 225 225 226 228 230 231 231 230 229 230 231 232 233 234 234 232 229 226 224 223 224 226 227 226 226 225 227 227 227 227 226 226 227 228 228 228 228 226 224 220 216 212 211 209 205
266 265 264 264 265 268 272 275 277 277 274 271 269 267 267 267 268 270 271 272 270 267 262 256 249 242 238 237 237 235 234 233 232 231 230 229 228 227 226 226 225 225 226 227 229 231 232 232 231 229 229 229 231 233 233 232 231 229 226 223 222 222 223 224 225 225 226 227 227 226 225 224 223 224 224 225 225 225 224 222 219 214 211 209 207 204
267 268 269 270 271 274 277 281 283 282 280 277 275 273 271 270 270 270 271 271 268 263 257 252 246 242 239 238 237 235 234 232 231 230 229 228 226 225 224 224 224 224 226 227 229 231 232 231 231 230 230 230 230 232 232 231 230 228 225 222 220 220 220 220 221 222 224 226 226 226 224 222 221 221 222 222 222 222 222 221 218 214 210 208 206 203
278 279 279 278 278 279 281 282 282 279 277 277 277 276 274 272 271 271 270 269 265 258 251 245 242 240 239 238 237 235 234 232 231 229 228 227 225 224 223 222 222 221 222 223 225 226 226 227 227 229 230 231 232 232 232 231 229 227 224 221 219 217 217 217 217 217 219 222 223 224 222 221 220 219 219 219 219 219 220 219 216 213 209 207 205 203
283 283 282 282 281 281 280 279 276 273 272 273 274 275 274 273 272 271 270 268 262 254 246 241 238 237 236 236 235 234 233 232 231 230 228 227 225 223 222 221 220 219 218 219 219 220 220 221 223 225 227 229 230 232 232 230 229 226 223 220 217 215 214 214 213 213 214 216 218 219 220 220 219 219 218 217 218 218 218 217 215 211 208 206 204 202
281 281 281 280 280 279 277 276 273 271 270 270 271 272 274 274 272 271 268 264 258 250 244 241 238 236 235 234 233 233 233 232 231 230 229 227 224 223 221 219 218 216 214 213 212 213 214 215 218 222 225 226 226 227 228 227 226 223 221 218 215 213 211 210 209 209 209 211 212 214 215 216 217 217 217 217 218 218 218 216 213 210 208 206 204 202
278 278 278 278 278 277 276 275 273 272 272 273 273 274 275 274 272 270 266 260 253 247 243 241 239 237 235 234 233 233 232 231 231 230 228 226 224 222 221 220 218 214 210 208 207 207 208 209 212 216 221 223 224 224 223 222 220 218 216 214 212 209 207 206 205 205 206 207 207 208 209 211 212 213 214 215 216 216 216 215 212 209 207 205 203 201
Height
1461 1462 1462 1462 1462 1462 1462 1462 1463 1463 1463 1463 1463 1463 1464 1464 1464 1464 1464 1464 1465 1465 1465 1465 1466 1466 1466 1467 1467 1467 1467 1468 1468 1468 1468 1469 1469 1470 1470 1470 1470 1470 1471 1471 1471 1472 1472 1473 1473 1474 1474 1475 1475 1475 1476 1476 1477 1477 1478 1479 1480 1480 1481 1481 1481 1482 1482 1482 1483 1483 1484 1484 1485 1485 1485 1486 1486 1487 1487 1488 1489 1490 1490 1490 1491 1491
1459 1460 1460 1460 1460 1460 1460 1461 1461 1461 1461 1461 1461 1461 1462 1462 1462 1462 1462 1463 1463 1463 1463 1463 1464 1464 1464 1465 1465 1465 1465 1465 1465 1466 1466 1467 1467 1467 1468 1468 1468 1468 1469 1469 1469 1469 1470 1470 1471 1471 1472 1472 1473 1473 1474 1474 1475 1475 1476 1477 1478 1478 1479 1480 1480 1480 1480 1481 1481 1482 1482 1482 1483 1484 1484 1485 1485 1485 1486 1487 1488 1489 1489 1490 1490 1490
1457 1457 1457 1458 1458 1458 1458 1459 1459 1460 1460 1460 1460 1460 1460 1460 1460 1460 1460 1460 1461 1461 1461 1461 1461 1462 1462 1462 1462 1463 1463 1463 1464 1464 1464 1465 1465 1465 1466 1466 1466 1466 1466 1466 1466 1467 1467 1468 1468 1469 1470 1470 1471 1471 1472 1472 1473 1474 1475 1475 1476 1477 1477 1478 1478 1479 1479 1479 1480 1480 1481 1481 1481 1482 1483 1483 1483 1484 1485 1485 1486 1487 1488 1489 1489 1489
1455 1455 1455 1456 1456 1456 1456 1457 1457 1457 1458 1458 1458 1458 1458 1458 1458 1458 1458 1458 1458 1459 1459 1459 1459 1459 1460 1460 1460 1460 1461 1461 1461 1462 1462 1463 1463 1463 1463 1464 1464 1464 1464 1464 1464 1464 1465 1465 1466 1467 1467 1468 1469 1469 1470 1470 1471 1472 1473 1474 1475 1475 1475 1476 1476 1477 1477 1478 1478 1479 1480 1480 1480 1481 1482 1482 1482 1482 1483 1484 1485 1486 1487 1487 1488 1488
1453 1453 1453 1454 1455 1455 1455 1455 1455 1455 1455 1455 1455 1456 1455 1455 1455 1456 1456 1456 1456 1456 1456 1456 1457 1457 1457 1457 1458 1458 1459 1459 1459 1460 1460 1460 1460 1461 1461 1461 1461 1461 1461 1461 1461 1462 1462 1463 1464 1464 1465 1465 1466 1467 1468 1468 1470 1470 1471 1472 1473 1473 1474 1474 1475 1475 1476 1476 1477 1478 1478 1479 1480 1480 1481 1481 1481 1481 1482 1482 1483 1484 1485 1486 1486 1487
1450 1451 1451 1452 1452 1453 1453 1453 1453 1453 1453 1453 1453 1454 1454 1454 1454 1454 1454 1454 1454 1454 1454 1454 1454 1455 1455 1455 1456 1456 1456 1457 1457 1457 1458 1458 1458 1458 1458 1458 1458 1459 1459 1459 1459 1459 1460 1460 1461 1462 1463 1463 1464 1465 1465 1467 1468 1469 1470 1470 1471 1471 1472 1473 1473 1474 1475 1475 1476 1476 1477 1478 1478 1480 1480 1480 1480 1480 1480 1480 1481 1482 1484 1485 1485 1485
1448 1449 1449 1450 1450 1450 1451 1451 1450 1450 1450 1451 1451 1451 1451 1451 1451 1451 1451 1451 1451 1451 1452 1452 1452 1452 1453 1453 1454 1454 1454 1455 1455 1455 1455 1455 1455 1455 1455 1455 1455 1456 1456 1456 1456 1457 1457 1458 1459 1460 1460 1461 1462 1463 1464 1465 1466 1467 1468 1469 1469 1470 1470 1471 1472 1472 1473 1474 1474 1475 1475 1476 1477 1478 1479 1480 1480 1479 1479 1479 1480 1480 1482 1482 1483 1484
1446 1446 1447 1447 1447 1448 1448 1448 1448 1448 1448 1448 1449 1449 1449 1449 1449 1449 1449 1449 1449 1449 1449 1450 1450 1450 1451 1451 1451 1452 1452 1452 1452 1452 1453 1453 1453 1453 1453 1453 1453 1453 1453 1454 1454 1454 1455 1455 1456 1457 1458 1459 1460 1461 1462 1463 1464 1465 1466 1467 1467 1468 1469 1470 1470 1471 1471 1472 1473 1473 1474 1475 1475 1476 1478 1479 1479 1479 1479 1478 1479 1479 1480 1480 1481 1482
1444 1444 1444 1445 1445 1445 1445 1445 1446 1446 1446 1446 1446 1446 1446 1446 1446 1446 1446 1446 1446 1447 1447 1447 1447 1448 1448 1449 1449 1449 1449 1449 1449 1450 1450 1450 1450 1450 1450 1450 1450 1450 1450 1451 1451 1452 1452 1453 1454 1455 1456 1457 1458 1459 1460 1461 1462 1463 1464 1465 1465 1466 1467 1468 1469 1469 1470 1470 1471 1472 1472 1473 1474 1475 1475 1477 1477 1478 1478 1478 1478 1479 1479 1480 1480 1480
1441 1441 1441 1441 1442 1443 1443 1443 1443 1443 1444 1444 1444 1444 1443 1443 1443 1443 1443 1443 1444 1444 1445 1445 1445 1445 1446 1446 1446 1446 1446 1446 1446 1447 1447 1447 1447 1447 1447 1447 1447 1448 1448 1449 1449 1450 1450 1451 1452 1453 1454 1455 1456 1457 1458 1459 1460 1461 1462 1463 1464 1465 1465 1466 1467 1468 1468 1469 1470 1470 1471 1471 1472 1473 1474 1475 1475 1476 1477 1477 1477 1478 1478 1479 1479 1480
1439 1439 1439 1439 1439 1440 1440 1440 1440 1440 1441 1441 1441 1441 1441 1441 1441 1441 1440 1440 1441 1442 1442 1442 1442 1443 1443 1444 1444 1444 1444 1444 1444 1444 1444 1444 1444 1444 1445 1445 1445 1445 1446 1446 1447 1447 1448 1449 1450 1451 1452 1453 1454 1455 1456 1457 1458 1460 1460 1461 1462 1463 1464 1465 1465 1466 1467 1467 1468 1469 1469 1470 1470 1471 1471 1472 1473 1474 1475 1475 1476 1476 1477 1478 1478 1478
1436 1436 1436 1436 1436 1437 1437 1438 1438 1438 1438 1439 1438 1438 1438 1438 1439 1439 1438 1438 1439 1439 1439 1439 1439 1440 1440 1440 1441 1441 1441 1441 1441 1441 1441 1441 1441 1442 1442 1442 1442 1443 1444 1444 1445 1445 1446 1447 1448 1450 1450 1451 1453 1454 1455 1455 1457 1458 1459 1460 1460 1461 1462 1463 1464 1464 1465 1465 1466 1467 1467 1468 1468 1469 1470 1470 1471 1472 1473 1473 1474 1475 1475 1476 1476 1477
1434 1434 1434 1434 1434 1434 1435 1435 1435 1435 1435 1435 1435 1435 1435 1436 1436 1436 1436 1436 1436 1436 1436 1436 1436 1436 1437 1438 1438 1438 1438 1438 1438 1438 1438 1438 1439 1439 1439 1440 1440 1440 1441 1442 1442 1443 1444 1445 1446 1448 1449 1450 1450 1452 1453 1454 1455 1456 1457 1458 1459 1459 1460 1461 1462 1463 1463 1464 1465 1465 1465 1466 1467 1467 1468 1469 1469 1470 1471 1471 1472 1473 1474 1475 1475 1475
1431 1431 1431 1431 1431 1431 1431 1432 1432 1432 1432 1432 1432 1433 1433 1433 1433 1433 1433 1433 1433 1434 1434 1433 1433 1433 1434 1435 1435 1435 1435 1435 1435 1435 1435 1435 1436 1436 1437 1437 1437 1438 1439 1440 1440 1441 1442 1443 1444 1445 1446 1448 1449 1450 1451 1452 1453 1454 1455 1456 1456 1457 1458 1459 1460 1461 1461 1462 1462 1463 1464 1464 1465 1465 1466 1467 1467 1468 1469 1470 1470 1471 1472 1473 1473 1474
1428 1428 1428 1428 1428 1428 1428 1429 1429 1429 1429 1430 1430 1431 1431 1431 1430 1430 1430 1430 1430 1430 1431 1430 1430 1430 1431 1431 1432 1432 1432 1432 1432 1432 1432 1433 1434 1434 1434 1435 1435 1436 1437 1437 1438 1439 1440 1441 1442 1443 1444 1445 1447 1448 1449 1450 1451 1452 1453 1454 1455 1455 1456 1457 1458 1459 1459 1460 1460 1461 1462 1462 1463 1464 1464 1465 1465 1466 1467 1468 1468 1469 1470 1471 1471 1472
1425 1425 1425 1425 1424 1425 1425 1425 1425 1426 1426 1427 1428 1428 1428 1428 1428 1427 1427 1427 1427 1427 1428 1427 1427 1427 1428 1428 1429 1429 1430 1430 1430 1430 1430 1430 1431 1432 1432 1432 1433 1433 1434 1435 1436 1437 1438 1439 1440 1441 1442 1443 1445 1446 1447 1448 1449 1450 1451 1452 1453 1454 1455 1455 1456 1457 1457 1458 1459 1459 1460 1460 1461 1462 1462 1463 1464 1465 1465 1466 1466 1467 1468 1469 1470 1470
1422 1422 1422 1422 1422 1421 1422 1423 1423 1423 1424 1425 1425 1425 1425 1425 1425 1425 1425 1424 1424 1425 1425 1425 1425 1424 1424 1425 1426 1426 1426 1427 1427 1427 1427 1427 1428 1429 1430 1430 1430 1431 1432 1433 1434 1435 1436 1437 1438 1439 1440 1441 1443 1444 1445 1446 1447 1448 1449 1450 1451 1452 1453 1454 1454 1455 1455 1456 1457 1457 1458 1459 1459 1460 1461 1461 1462 1463 1463 1464 1465 1465 1466 1467 1468 1468
1420 1419 1419 1420 1419 1419 1420 1420 1420 1421 1421 1422 1422 1422 1423 1423 1423 1422 1422 1422 1422 1422 1422 1422 1422 1422 1422 1422 1423 1424 1424 1424 1424 1425 1425 1425 1425 1427 1427 1428 1428 1429 1429 1430 1431 1433 1434 1435 1436 1437 1438 1440 1441 1442 1443 1444 1445 1446 1447 1448 1449 1450 1451 1452 1452 1453 1453 1454 1455 1455 1456 1457 1458 1458 1459 1460 1460 1461 1462 1462 1463 1464 1464 1465 1466 1466
1417 1416 1416 1416 1417 1417 1417 1417 1417 1418 1419 1419 1420 1420 1420 1420 1420 1420 1419 1419 1419 1419 1419 1419 1419 1419 1420 1420 1420 1421 1421 1422 1422 1422 1422 1422 1423 1424 1425 1425 1425 1426 1427 1428 1429 1430 1432 1433 1434 1435 1437 1438 1439 1440 1441 1442 1443 1444 1445 1446 1447 1448 1449 1450 1450 1451 1452 1452 1453 1454 1455 1455 1456 1457 1457 1458 1459 1459 1460 1460 1461 1462 1462 1463 1464 1465
1415 1414 1414 1414 1414 1414 1414 1414 1414 1415 1416 1416 1417 1417 1417 1417 1417 1417 1416 1416 1416 1416 1417 1417 1417 1417 1417 1418 1419 1419 1419 1419 1419 1420 1420 1420 1420 1421 1422 1423 1423 1424 1425 1425 1426 1428 1430 1431 1432 1433 1435 1436 1437 1438 1439 1440 1441 1442 1443 1444 1445 1446 1447 1448 1449 1449 1450 1451 1451 1452 1453 1453 1454 1455 1455 1456 1457 1457 1458 1459 1459 1460 1460 1461 1462 1462
1412 1411 1411 1412 1412 1412 1411 1410 1411 1412 1413 1414 1414 1414 1414 1414 1414 1414 1413 1414 1414 1414 1414 1414 1414 1415 1416 1417 1417 1416 1417 1417 1417 1417 1417 1417 1418 1419 1420 1421 1421 1422 1422 1423 1425 1426 1427 1429 1430 1431 1432 1434 1435 1436 1437 1438 1440 1440 1441 1442 1443 1444 1445 1446 1447 1447 1448 1449 1450 1450 1451 1452 1452 1453 1454 1454 1455 1455 1456 1456 1457 1458 1458 1459 1460 1460
1410 1409 1409 1410 1410 1409 1409 1409 1409 1410 1410 1410 1410 1410 1410 1411 1411 1410 1410 1411 1412 1412 1412 1412 1412 1413 1414 1415 1415 1415 1415 1415 1415 1415 1415 1415 1415 1416 1418 1419 1420 1420 1421 1421 1423 1424 1425 1427 1428 1429 1430 1431 1433 1434 1435 1436 1437 1439 1440 1440 1441 1442 1443 1444 1445 1446 1446 1447 1448 1449 1449 1450 1450 1451 1452 1453 1453 1454 1454 1455 1455 1455 1456 1457 1457 1458
1407 1406 1407 1407 1407 1407 1407 1407 1407 1407 1407 1408 1407 1407 1407 1408 1408 1408 1408 1409 1409 1409 1409 1410 1410 1411 1412 1412 1412 1413 1413 1414 1414 1414 1414 1414 1414 1414 1415 1417 1418 1419 1419 1420 1421 1423 1424 1425 1426 1427 1428 1430 1431 1432 1433 1434 1435 1436 1437 1438 1439 1440 1441 1442 1443 1444 1445 1445 1446 1447 1448 1448 1449 1450 1450 1451 1451 1452 1452 1453 1453 1454 1454 1455 1455 1456
1404 1404 1404 1405 1405 1405 1405 1405 1405 1405 1405 1405 1405 1405 1405 1405 1405 1405 1406 1406 1407 1407 1407 1408 1408 1408 1409 1410 1410 1411 1411 1412 1413 1413 1413 1412 1412 1412 1414 1415 1416 1417 1418 1418 1420 1421 1422 1424 1425 1426 1427 1428 1429 1430 1431 1432 1433 1434 1435 1436 1437 1438 1439 1440 1441 1442 1443 1444 1444 1445 1446 1446 1447 1448 1448 1449 1450 1450 1450 1451 1451 1452 1452 1453 1454 1455
1400 1401 1401 1401 1402 1402 1403 1403 1403 1403 1403 1403 1403 1403 1403 1403 1403 1403 1404 1404 1404 1404 1405 1405 1405 1405 1406 1407 1408 1409 1409 1410 1411 1411 1411 1411 1411 1411 1412 1413 1415 1415 1416 1417 1418 1419 1421 1422 1423 1424 1425 1426 1427 1428 1429 1430 1431 1432 1433 1434 1435 1436 1437 1438 1439 1440 1441 1442 1442 1443 1444 1445 1445 1446 1446 1447 1448 1448 1449 1449 1450 1450 1450 1451 1452 1452
1397 1397 1398 1398 1398 1399 1399 1399 1400 1400 1400 1400 1400 1401 1401 1402 1402 1402 1401 1401 1401 1401 1402 1402 1402 1402 1403 1405 1405 1406 1407 1409 1410 1410 1410 1410 1410 1410 1410 1412 1413 1414 1415 1415 1416 1418 1419 1420 1421 1422 1423 1424 1425 1426 1427 1428 1429 1430 1431 1432 1433 1435 1435 1436 1437 1438 1439 1440 1441 1441 1442 1443 1443 1444 1445 1445 1446 1446 1447 1447 1448 1448 1449 1449 1450 1450
1394 1394 1395 1395 1395 1395 1395 1395 1395 1396 1397 1397 1398 1398 1399 1400 1400 1399 1399 1398 1398 1399 1399 1399 1399 1399 1400 1401 1402 1403 1405 1407 1408 1408 1408 1409 1409 1408 1408 1410 1411 1412 1413 1414 1415 1416 1417 1418 1419 1420 1421 1422 1423 1424 1425 1426 1427 1428 1429 1430 1431 1432 1434 1434 1435 1436 1437 1438 1439 1440 1440 1441 1441 1442 1443 1443 1444 1445 1445 1445 1446 1446 1447 1447 1448 1449
1390 1391 1391 1392 1392 1392 1392 1392 1393 1393 1394 1395 1395 1396 1396 1397 1396 1396 1395 1395 1396 1397 1396 1396 1396 1397 1398 1398 1399 1400 1402 1404 1405 1406 1407 1408 1407 1406 1406 1408 1410 1411 1411 1412 1413 1414 1415 1416 1417 1418 1419 1420 1421 1422 1423 1424 1425 1425 1427 1428 1429 1430 1432 1432 1433 1434 1435 1436 1437 1438 1439 1439 1440 1440 1441 1442 1442 1443 1443 1444 1444 1444 1445 1445 1446 1447
1387 1387 1388 1388 1389 1389 1389 1389 1389 1390 1390 1391 1393 1394 1394 1394 1393 1392 1391 1393 1394 1394 1393 1393 1394 1395 1395 1395 1397 1398 1400 1400 1402 1404 1405 1406 1405 1404 1405 1406 1408 1409 1410 1410 1411 1412 1413 1413 1414 1415 1417 1418 1419 1420 1421 1422 1423 1424 1425 1426 1427 1429 1430 1430 1431 1432 1433 1434 1435 1436 1437 1437 1438 1439 1439 1440 1440 1441 1442 1442 1442 1442 1443 1443 1444 1445
1384 1384 1384 1385 1385 1385 1386 1386 1386 1386 1387 1388 1389 1390 1391 1391 1390 1389 1389 1390 1391 1391 1390 1391 1391 1392 1392 1394 1395 1396 1396 1396 1399 1401 1403 1403 1402 1402 1403 1405 1405 1406 1408 1409 1410 1410 1410 1410 1411 1413 1414 1416 1417 1418 1419 1420 1420 1421 1422 1424 1425 1426 1428 1429 1430 1430 1431 1432 1433 1434 1435 1435 1436 1437 1437 1438 1439 1439 1440 1440 1440 1440 1441 1442 1442 1443
1380 1380 1380 1381 1381 1382 1382 1382 1382 1383 1384 1384 1385 1386 1387 1388 1387 1387 1387 1387 1387 1387 1388 1388 1388 1389 1390 1391 1393 1393 1392 1393 1395 1398 1400 1400 1400 1400 1401 1402 1403 1404 1405 1406 1407 1407 1407 1408 1409 1410 1412 1413 1415 1416 1416 1417 1418 1419 1420 1421 1423 1424 1425 1426 1428 1429 1430 1430 1431 1432 1433 1434 1435 1435 1435 1436 1437 1437 1438 1438 1439 1439 1440 1440 1440 1441
1378 1378 1378 1378 1378 1379 1379 1379 1379 1380 1380 1381 1381 1382 1383 1384 1384 1385 1385 1384 1384 1384 1385 1385 1385 1385 1386 1387 1388 1389 1389 1390 1392 1395 1396 1397 1398 1398 1399 1400 1401 1402 1403 1404 1405 1405 1405 1405 1406 1408 1410 1411 1412 1413 1414 1415 1416 1416 1418 1419 1420 1421 1423 1424 1425 1426 1428 1429 1430 1430 1431 1432 1433 1433 1434 1435 1435 1435 1436 1436 1437 1437 1438 1438 1439 1440
1375 1375 1375 1375 1375 1376 1376 1376 1376 1376 1377 1377 1378 1378 1379 1380 1381 1381 1381 1381 1381 1382 1382 1382 1382 1383 1383 1384 1385 1385 1386 1388 1390 1391 1393 1395 1395 1396 1397 1398 1399 1400 1400 1402 1402 1403 1403 1403 1404 1405 1407 1408 1410 1411 1412 1413 1414 1415 1415 1417 1418 1419 1420 1422 1423 1424 1425 1426 1428 1429 1430 1430 1431 1432 1432 1433 1433 1434 1434 1435 1435 1435 1436 1437 1437 1438
1373 1373 1373 1373 1373 1373 1373 1373 1373 1374 1374 1374 1374 1375 1375 1376 1377 1378 1378 1379 1379 1379 1379 1379 1380 1380 1380 1381 1382 1383 1384 1385 1387 1388 1390 1391 1392 1393 1394 1395 1396 1397 1398 1399 1400 1400 1401 1401 1402 1403 1405 1406 1407 1409 1410 1411 1412 1412 1413 1415 1416 1417 1418 1419 1420 1422 1423 1424 1425 1427 1428 1429 1429 1430 1430 1431 1431 1432 1432 1433 1433 1434 1435 1435 1435 1436
1371 1371 1370 1371 1370 1370 1370 1370 1370 1371 1371 1371 1371 1372 1372 1373 1374 1375 1375 1375 1376 1376 1376 1376 1376 1377 1377 1378 1379 1380 1380 1382 1384 1385 1387 1388 1389 1390 1391 1392 1393 1394 1395 1396 1397 1397 1398 1399 1400 1401 1402 1404 1405 1406 1407 1408 1409 1410 1411 1412 1414 1415 1416 1417 1418 1420 1421 1422 1424 1425 1426 1427 1428 1428 1429 1429 1430 1430 1431 1431 1432 1432 1433 1434 1434 1435
1369 1368 1368 1368 1368 1368 1367 1368 1368 1368 1368 1368 1369 1369 1370 1370 1370 1371 1372 1373 1373 1373 1373 1373 1374 1374 1375 1375 1376 1376 1377 1379 1381 1383 1384 1385 1386 1387 1388 1389 1390 1391 1392 1393 1394 1395 1395 1396 1397 1398 1400 1401 1402 1403 1405 1406 1407 1408 1409 1410 1412 1413 1414 1415 1416 1417 1419 1420 1422 1423 1424 1425 1426 1427 1427 1428 1428 1429 1430 1430 1430 1430 1431 1432 1432 1433
1366 1365 1365 1365 1365 1365 1365 1365 1365 1365 1365 1366 1366 1366 1367 1367 1368 1368 1369 1370 1370 1370 1371 1371 1371 1372 1372 1373 1374 1374 1375 1377 1379 1380 1381 1382 1383 1384 1385 1386 1387 1388 1390 1390 1391 1392 1393 1394 1395 1396 1397 1398 1399 1400 1401 1403 1405 1406 1407 1408 1409 1410 1412 1412 1414 1415 1416 1418 1420 1421 1422 1423 1424 1425 1426 1426 1427 1427 1428 1428 1429 1429 1430 1430 1431 1431
1364 1363 1363 1363 1363 1363 1362 1362 1362 1363 1363 1363 1364 1364 1365 1365 1365 1365 1366 1367 1367 1368 1368 1368 1369 1369 1370 1371 1371 1373 1374 1375 1376 1377 1378 1379 1380 1381 1382 1383 1384 1385 1386 1388 1389 1390 1391 1391 1392 1393 1394 1395 1396 1397 1399 1400 1402 1403 1405 1406 1407 1408 1409 1410 1411 1412 1414 1415 1417 1419 1420 1422 1423 1423 1424 1425 1425 1426 1426 1427 1427 1427 1428 1429 1429 1430
1361 1360 1360 1360 1360 1360 1360 1360 1360 1360 1360 1361 1361 1361 1362 1362 1362 1363 1363 1364 1364 1365 1365 1365 1366 1367 1367 1368 1369 1370 1371 1371 1372 1374 1375 1376 1377 1378 1379 1380 1381 1383 1384 1385 1386 1387 1388 1389 1390 1390 1391 1392 1393 1395 1396 1398 1400 1401 1402 1404 1405 1406 1407 1408 1409 1410 1411 1413 1415 1417 1418 1420 1420 1421 1422 1423 1423 1424 1425 1425 1425 1426 1426 1427 1428 1429
1358 1358 1357 1357 1357 1357 1357 1356 1357 1357 1358 1359 1359 1359 1360 1360 1360 1360 1360 1360 1361 1362 1362 1363 1364 1364 1365 1366 1367 1367 1368 1369 1370 1371 1372 1373 1374 1375 1376 1377 1379 1380 1381 1383 1384 1385 1385 1386 1387 1388 1389 1390 1391 1392 1394 1395 1397 1398 1400 1401 1402 1403 1404 1405 1407 1408 1409 1411 1413 1415 1416 1417 1419 1420 1420 1421 1421 1422 1423 1424 1424 1425 1425 1425 1426 1427
1355 1355 1355 1354 1354 1354 1354 1354 1354 1355 1356 1356 1356 1356 1357 1357 1357 1357 1357 1358 1358 1359 1359 1360 1361 1361 1362 1363 1364 1365 1365 1366 1367 1368 1369 1370 1371 1373 1374 1375 1376 1377 1379 1380 1381 1382 1383 1384 1385 1386 1387 1388 1389 1390 1391 1392 1394 1396 1397 1398 1399 1400 1401 1403 1405 1406 1407 1409 1410 1412 1414 1415 1416 1417 1418 1419 1420 1421 1422 1422 1423 1423 1424 1424 1425 1425
1353 1352 1352 1352 1351 1351 1351 1351 1352 1352 1353 1354 1354 1354 1354 1354 1355 1355 1355 1355 1355 1356 1356 1357 1358 1358 1359 1360 1360 1362 1363 1364 1365 1365 1366 1368 1369 1370 1371 1372 1373 1375 1376 1378 1379 1380 1380 1382 1383 1383 1384 1385 1386 1387 1388 1390 1391 1393 1395 1395 1397 1399 1400 1402 1403 1404 1405 1406 1408 1410 1412 1413 1414 1415 1416 1417 1418 1420 1420 1421 1422 1422 1423 1423 1424 1425
1350 1350 1350 1349 1349 1348 1348 1349 1350 1350 1350 1351 1350 1350 1350 1351 1351 1352 1352 1352 1353 1353 1354 1354 1355 1355 1356 1357 1358 1359 1360 1361 1362 1363 1364 1365 1366 1368 1369 1370 1371 1372 1374 1375 1376 1377 1378 1380 1380 1381 1382 1383 1384 1385 1386 1387 1389 1390 1392 1393 1395 1396 1398 1399 1400 1401 1403 1404 1406 1408 1409 1411 1412 1414 1415 1416 1417 1418 1419 1420 1420 1421 1421 1422 1423 1424
1348 1348 1348 1347 1347 1347 1347 1347 1348 1348 1348 1348 1347 1347 1348 1348 1349 1349 1350 1350 1350 1350 1351 1351 1352 1353 1354 1354 1355 1356 1357 1358 1359 1360 1362 1363 1364 1365 1366 1367 1369 1370 1371 1372 1373 1375 1376 1377 1378 1379 1380 1381 1382 1383 1384 1385 1386 1388 1389 1391 1392 1393 1393 1395 1396 1399 1400 1402 1404 1405 1407 1409 1410 1412 1413 1414 1415 1416 1417 1418 1419 1420 1420 1421 1422 1423
1346 1346 1346 1346 1345 1345 1345 1345 1345 1345 1345 1345 1344 1344 1345 1345 1346 1346 1347 1347 1348 1348 1348 1349 1350 1350 1351 1351 1352 1353 1354 1355 1357 1358 1359 1360 1362 1363 1364 1365 1366 1367 1369 1370 1371 1372 1373 1375 1375 1377 1378 1379 1380 1381 1382 1383 1384 1385 1387 1388 1390 1391 1392 1394 1395 1397 1398 1400 1401 1403 1405 1407 1409 1410 1411 1412 1413 1414 1415 1416 1417 1418 1419 1420 1421 1422
1344 1344 1343 1343 1342 1342 1342 1342 1342 1342 1342 1341 1341 1342 1342 1343 1343 1344 1345 1345 1345 1345 1346 1346 1347 1347 1347 1348 1349 1350 1351 1353 1354 1355 1356 1358 1359 1360 1362 1363 1364 1365 1366 1368 1369 1370 1371 1372 1374 1375 1376 1377 1378 1379 1380 1381 1382 1383 1385 1386 1387 1389 1390 1392 1394 1395 1396 1398 1400 1401 1403 1405 1407 1408 1409 1410 1411 1412 1413 1415 1415 1416 1418 1419 1420 1421
1342 1341 1340 1340 1340 1340 1340 1340 1340 1340 1339 1339 1339 1339 1340 1340 1341 1342 1342 1343 1343 1343 1343 1344 1344 1345 1345 1345 1346 1347 1348 1350 1351 1353 1354 1355 1356 1358 1359 1360 1362 1363 1365 1366 1367 1368 1369 1370 1372 1373 1374 1375 1375 1376 1377 1379 1380 1381 1382 1384 1385 1386 1388 1389 1391 1393 1395 1396 1398 1399 1401 1403 1405 1405 1406 1408 1409 1410 1412 1413 1414 1415 1416 1418 1419 1420
1339 1339 1338 1338 1338 1338 1338 1338 1338 1338 1338 1337 1337 1337 1337 1338 1338 1339 1340 1340 1341 1341 1341 1341 1341 1342 1343 1343 1344 1344 1345 1347 1348 1350 1351 1353 1354 1355 1357 1358 1360 1361 1362 1364 1365 1366 1367 1369 1370 1371 1371 1372 1373 1374 1375 1376 1378 1379 1380 1382 1383 1385 1386 1387 1389 1391 1393 1394 1396 1397 1399 1400 1402 1403 1404 1406 1407 1408 1410 1411 1412 1414 1415 1416 1417 1419
1336 1336 1336 1336 1336 1335 1335 1335 1335 1336 1336 1335 1335 1335 1335 1335 1336 1337 1338 1338 1338 1338 1338 1338 1339 1340 1340 1341 1341 1342 1343 1345 1346 1348 1349 1350 1352 1353 1354 1355 1357 1358 1360 1361 1363 1364 1365 1366 1368 1369 1370 1370 1371 1372 1373 1374 1376 1377 1379 1380 1381 1382 1384 1385 1387 1389 1390 1392 1394 1395 1397 1398 1400 1401 1402 1404 1405 1406 1408 1409 1410 1412 1414 1415 1416 1417
1334 1334 1334 1334 1333 1333 1333 1333 1333 1333 1333 1333 1333 1333 1333 1333 1334 1335 1335 1336 1336 1336 1335 1336 1336 1337 1338 1338 1339 1340 1341 1342 1344 1345 1346 1348 1349 1351 1352 1353 1355 1356 1358 1359 1360 1362 1363 1364 1365 1366 1367 1368 1369 1370 1371 1372 1374 1375 1377 1378 1379 1380 1382 1383 1385 1387 1388 1390 1391 1393 1395 1397 1398 1400 1401 1402 1404 1405 1406 1408 1409 1410 1412 1413 1415 1416
1332 1331 1331 1331 1331 1331 1331 1331 1331 1331 1331 1331 1331 1331 1331 1331 1331 1332 1333 1333 1333 1333 1333 1334 1335 1335 1335 1336 1336 1337 1338 1340 1341 1343 1344 1345 1347 1348 1350 1351 1352 1354 1355 1356 1358 1359 1360 1362 1363 1364 1365 1366 1367 1368 1369 1370 1371 1373 1375 1376 1377 1378 1380 1381 1383 1385 1386 1388 1390 1391 1393 1395 1396 1398 1399 1400 1402 1403 1405 1406 1407 1409 1410 1412 1413 1415